Grub im Wienerwald
Wetterdaten: aktuell Sonntag, 24.01.2021 00:51
Datum Zeit Temp. A. Feuchte A. Luftdruck Regen Wind Richtung Richtung Sonnenschein UV Solar Taupunkt Windchill Windben
24.01.2021 00:51 0,3 C 94 % 995,5 hPa 0,0 l/m 0,0 km/h W-NW 287 0 min 0,0 UV-I 0 W/m -0,5 C 0,3 C 0,0 km/h
24.01.2021 00:48 0,3 C 94 % 995,5 hPa 0,0 l/m 0,0 km/h W-NW 287 0 min 0,0 UV-I 0 W/m -0,5 C 0,3 C 0,0 km/h
24.01.2021 00:45 0,3 C 94 % 995,5 hPa 0,0 l/m 0,0 km/h W-NW 287 0 min 0,0 UV-I 0 W/m -0,5 C 0,3 C 0,0 km/h
24.01.2021 00:42 0,4 C 94 % 995,5 hPa 0,0 l/m 0,0 km/h W-NW 287 0 min 0,0 UV-I 0 W/m -0,5 C 0,4 C 0,0 km/h
24.01.2021 00:39 0,4 C 94 % 995,6 hPa 0,0 l/m 0,0 km/h W-NW 287 0 min 0,0 UV-I 0 W/m -0,5 C 0,4 C 0,0 km/h
24.01.2021 00:36 0,4 C 94 % 995,5 hPa 0,0 l/m 0,0 km/h W-NW 287 0 min 0,0 UV-I 0 W/m -0,5 C 0,4 C 0,0 km/h
24.01.2021 00:33 0,4 C 94 % 995,6 hPa 0,0 l/m 0,0 km/h W-NW 287 0 min 0,0 UV-I 0 W/m -0,5 C 0,4 C 0,0 km/h
24.01.2021 00:30 0,4 C 94 % 995,6 hPa 0,0 l/m 0,0 km/h W-NW 287 0 min 0,0 UV-I 0 W/m -0,5 C 0,4 C 0,0 km/h
24.01.2021 00:27 0,4 C 94 % 995,6 hPa 0,0 l/m 0,0 km/h W-NW 287 0 min 0,0 UV-I 0 W/m -0,5 C 0,4 C 0,0 km/h
24.01.2021 00:24 0,4 C 94 % 995,6 hPa 0,0 l/m 0,0 km/h W-NW 287 0 min 0,0 UV-I 0 W/m -0,5 C 0,4 C 0,0 km/h
24.01.2021 00:21 0,4 C 94 % 995,6 hPa 0,0 l/m 0,0 km/h W-NW 287 0 min 0,0 UV-I 0 W/m -0,5 C 0,4 C 0,0 km/h
24.01.2021 00:18 0,4 C 94 % 995,6 hPa 0,0 l/m 0,0 km/h W-NW 287 0 min 0,0 UV-I 0 W/m -0,5 C 0,4 C 0,0 km/h
24.01.2021 00:15 0,5 C 94 % 995,7 hPa 0,0 l/m 0,0 km/h W-NW 287 0 min 0,0 UV-I 0 W/m -0,4 C 0,5 C 0,0 km/h
24.01.2021 00:12 0,5 C 94 % 995,7 hPa 0,0 l/m 0,0 km/h W-NW 287 0 min 0,0 UV-I 0 W/m -0,4 C 0,5 C 0,0 km/h
24.01.2021 00:09 0,5 C 94 % 995,8 hPa 0,0 l/m 0,0 km/h W-NW 287 0 min 0,0 UV-I 0 W/m -0,4 C 0,5 C 0,0 km/h
24.01.2021 00:06 0,5 C 94 % 995,8 hPa 0,0 l/m 0,0 km/h W-NW 287 0 min 0,0 UV-I 0 W/m -0,4 C 0,5 C 0,0 km/h
24.01.2021 00:03 0,6 C 94 % 995,8 hPa 0,0 l/m 0,0 km/h W-NW 287 0 min 0,0 UV-I 0 W/m -0,3 C 0,6 C 0,0 km/h
24.01.2021 00:00 0,6 C 94 % 995,9 hPa 0,0 l/m 0,0 km/h W-NW 287 0 min 0,0 UV-I 0 W/m -0,3 C 0,6 C 0,0 km/h
23.01.2021 23:57 0,6 C 94 % 995,9 hPa 0,0 l/m 0,0 km/h W-NW 287 0 min 0,0 UV-I 0 W/m -0,3 C 0,6 C 0,0 km/h
23.01.2021 23:54 0,6 C 94 % 995,9 hPa 0,0 l/m 0,0 km/h W-NW 287 0 min 0,0 UV-I 0 W/m -0,3 C 0,6 C 0,0 km/h
23.01.2021 23:51 0,6 C 94 % 995,9 hPa 0,0 l/m 0,0 km/h W-NW 287 0 min 0,0 UV-I 0 W/m -0,3 C 0,6 C 0,0 km/h
23.01.2021 23:48 0,6 C 94 % 995,9 hPa 0,0 l/m 0,0 km/h W-NW 287 0 min 0,0 UV-I 0 W/m -0,3 C 0,6 C 0,0 km/h
23.01.2021 23:45 0,6 C 94 % 996,0 hPa 0,0 l/m 0,0 km/h W-NW 287 0 min 0,0 UV-I 0 W/m -0,3 C 0,6 C 0,0 km/h
23.01.2021 23:42 0,6 C 94 % 996,0 hPa 0,0 l/m 0,0 km/h W-NW 287 0 min 0,0 UV-I 0 W/m -0,3 C 0,6 C 0,0 km/h
23.01.2021 23:39 0,6 C 94 % 996,1 hPa 0,0 l/m 0,0 km/h W-NW 287 0 min 0,0 UV-I 0 W/m -0,3 C 0,6 C 0,0 km/h
23.01.2021 23:36 0,6 C 94 % 996,0 hPa 0,0 l/m 0,0 km/h W-NW 287 0 min 0,0 UV-I 0 W/m -0,3 C 0,6 C 0,0 km/h
23.01.2021 23:33 0,6 C 94 % 996,1 hPa 0,0 l/m 0,0 km/h W-NW 287 0 min 0,0 UV-I 0 W/m -0,3 C 0,6 C 0,0 km/h
23.01.2021 23:30 0,6 C 94 % 996,1 hPa 0,0 l/m 0,0 km/h W-NW 287 0 min 0,0 UV-I 0 W/m -0,3 C 0,6 C 0,0 km/h
23.01.2021 23:27 0,6 C 94 % 996,1 hPa 0,0 l/m 0,0 km/h W-NW 287 0 min 0,0 UV-I 0 W/m -0,3 C 0,6 C 0,0 km/h
23.01.2021 23:24 0,6 C 94 % 996,2 hPa 0,0 l/m 0,0 km/h W-NW 287 0 min 0,0 UV-I 0 W/m -0,3 C 0,6 C 0,0 km/h
23.01.2021 23:21 0,6 C 94 % 996,2 hPa 0,0 l/m 0,0 km/h W-NW 287 0 min 0,0 UV-I 0 W/m -0,3 C 0,6 C 0,0 km/h
23.01.2021 23:18 0,6 C 94 % 996,3 hPa 0,0 l/m 0,0 km/h W-NW 287 0 min 0,0 UV-I 0 W/m -0,3 C 0,6 C 0,0 km/h
23.01.2021 23:15 0,6 C 94 % 996,3 hPa 0,0 l/m 0,0 km/h W-NW 287 0 min 0,0 UV-I 0 W/m -0,3 C 0,6 C 0,0 km/h
23.01.2021 23:12 0,6 C 94 % 996,3 hPa 0,0 l/m 0,0 km/h W-NW 287 0 min 0,0 UV-I 0 W/m -0,3 C 0,6 C 0,0 km/h
23.01.2021 23:09 0,6 C 93 % 996,2 hPa 0,0 l/m 0,6 km/h W-NW 287 0 min 0,0 UV-I 0 W/m -0,4 C 0,6 C 3,2 km/h
23.01.2021 23:06 0,6 C 93 % 996,3 hPa 0,0 l/m 0,0 km/h W-NW 287 0 min 0,0 UV-I 0 W/m -0,4 C 0,6 C 0,0 km/h
23.01.2021 23:03 0,6 C 93 % 996,4 hPa 0,0 l/m 0,0 km/h W-NW 287 0 min 0,0 UV-I 0 W/m -0,4 C 0,6 C 0,0 km/h
23.01.2021 23:00 0,7 C 93 % 996,4 hPa 0,0 l/m 0,2 km/h W-NW 287 0 min 0,0 UV-I 0 W/m -0,3 C 0,7 C 1,6 km/h
23.01.2021 22:57 0,7 C 93 % 996,3 hPa 0,0 l/m 0,0 km/h W-NW 287 0 min 0,0 UV-I 0 W/m -0,3 C 0,7 C 0,0 km/h
23.01.2021 22:54 0,7 C 93 % 996,2 hPa 0,0 l/m 0,0 km/h W-NW 287 0 min 0,0 UV-I 0 W/m -0,3 C 0,7 C 0,0 km/h
23.01.2021 22:51 0,7 C 93 % 996,1 hPa 0,0 l/m 0,0 km/h W-NW 287 0 min 0,0 UV-I 0 W/m -0,3 C 0,7 C 0,0 km/h
23.01.2021 22:48 0,7 C 93 % 996,1 hPa 0,0 l/m 0,0 km/h W-NW 287 0 min 0,0 UV-I 0 W/m -0,3 C 0,7 C 0,0 km/h
23.01.2021 22:45 0,7 C 93 % 996,1 hPa 0,0 l/m 0,0 km/h W-NW 287 0 min 0,0 UV-I 0 W/m -0,3 C 0,7 C 0,0 km/h
23.01.2021 22:42 0,7 C 93 % 996,3 hPa 0,0 l/m 0,0 km/h W-NW 287 0 min 0,0 UV-I 0 W/m -0,3 C 0,7 C 0,0 km/h
23.01.2021 22:39 0,7 C 93 % 996,3 hPa 0,0 l/m 0,0 km/h W-NW 287 0 min 0,0 UV-I 0 W/m -0,3 C 0,7 C 0,0 km/h
23.01.2021 22:36 0,7 C 93 % 996,4 hPa 0,0 l/m 0,0 km/h W-NW 287 0 min 0,0 UV-I 0 W/m -0,3 C 0,7 C 0,0 km/h
23.01.2021 22:33 0,7 C 93 % 996,4 hPa 0,0 l/m 0,0 km/h W-NW 287 0 min 0,0 UV-I 0 W/m -0,3 C 0,7 C 0,0 km/h
23.01.2021 22:30 0,8 C 93 % 996,4 hPa 0,0 l/m 0,0 km/h W-NW 287 0 min 0,0 UV-I 0 W/m -0,2 C 0,8 C 0,0 km/h
23.01.2021 22:27 0,8 C 93 % 996,4 hPa 0,0 l/m 0,0 km/h W-NW 287 0 min 0,0 UV-I 0 W/m -0,2 C 0,8 C 0,0 km/h
23.01.2021 22:24 0,8 C 93 % 996,4 hPa 0,0 l/m 0,0 km/h W-NW 287 0 min 0,0 UV-I 0 W/m -0,2 C 0,8 C 0,0 km/h
23.01.2021 22:21 0,8 C 93 % 996,4 hPa 0,0 l/m 0,0 km/h W-NW 287 0 min 0,0 UV-I 0 W/m -0,2 C 0,8 C 0,0 km/h
23.01.2021 22:18 0,8 C 93 % 996,5 hPa 0,0 l/m 0,0 km/h W-NW 287 0 min 0,0 UV-I 0 W/m -0,2 C 0,8 C 0,0 km/h
23.01.2021 22:15 0,8 C 93 % 996,5 hPa 0,0 l/m 0,0 km/h W-NW 287 0 min 0,0 UV-I 0 W/m -0,2 C 0,8 C 0,0 km/h
23.01.2021 22:12 0,8 C 93 % 996,6 hPa 0,0 l/m 0,0 km/h W-NW 287 0 min 0,0 UV-I 0 W/m -0,2 C 0,8 C 0,0 km/h
23.01.2021 22:09 0,8 C 93 % 996,6 hPa 0,0 l/m 0,0 km/h W-NW 287 0 min 0,0 UV-I 0 W/m -0,2 C 0,8 C 0,0 km/h
23.01.2021 22:06 0,8 C 93 % 996,6 hPa 0,0 l/m 0,0 km/h W-NW 287 0 min 0,0 UV-I 0 W/m -0,2 C 0,8 C 0,0 km/h
23.01.2021 22:03 0,8 C 93 % 996,6 hPa 0,0 l/m 0,0 km/h W-NW 287 0 min 0,0 UV-I 0 W/m -0,2 C 0,8 C 0,0 km/h
23.01.2021 22:00 0,8 C 93 % 996,7 hPa 0,0 l/m 0,0 km/h W-NW 287 0 min 0,0 UV-I 0 W/m -0,2 C 0,8 C 0,0 km/h
23.01.2021 21:57 0,9 C 93 % 996,6 hPa 0,0 l/m 0,0 km/h W-NW 287 0 min 0,0 UV-I 0 W/m -0,1 C 0,9 C 0,0 km/h
23.01.2021 21:54 0,9 C 93 % 996,6 hPa 0,0 l/m 0,0 km/h W-NW 287 0 min 0,0 UV-I 0 W/m -0,1 C 0,9 C 0,0 km/h
23.01.2021 21:51 0,9 C 93 % 996,7 hPa 0,0 l/m 0,0 km/h W-NW 287 0 min 0,0 UV-I 0 W/m -0,1 C 0,9 C 0,0 km/h
23.01.2021 21:48 0,9 C 93 % 996,7 hPa 0,0 l/m 0,0 km/h W-NW 287 0 min 0,0 UV-I 0 W/m -0,1 C 0,9 C 0,0 km/h
23.01.2021 21:45 0,9 C 93 % 996,7 hPa 0,0 l/m 0,0 km/h W-NW 287 0 min 0,0 UV-I 0 W/m -0,1 C 0,9 C 0,0 km/h
23.01.2021 21:42 0,9 C 93 % 996,8 hPa 0,0 l/m 0,0 km/h W-NW 287 0 min 0,0 UV-I 0 W/m -0,1 C 0,9 C 0,0 km/h
23.01.2021 21:39 0,9 C 93 % 996,8 hPa 0,0 l/m 0,0 km/h W-NW 287 0 min 0,0 UV-I 0 W/m -0,1 C 0,9 C 0,0 km/h
23.01.2021 21:36 0,9 C 93 % 996,7 hPa 0,0 l/m 0,0 km/h W-NW 287 0 min 0,0 UV-I 0 W/m -0,1 C 0,9 C 0,0 km/h
23.01.2021 21:33 0,9 C 93 % 996,9 hPa 0,0 l/m 0,0 km/h W-NW 287 0 min 0,0 UV-I 0 W/m -0,1 C 0,9 C 0,0 km/h
23.01.2021 21:30 0,9 C 93 % 996,9 hPa 0,0 l/m 0,0 km/h W-NW 287 0 min 0,0 UV-I 0 W/m -0,1 C 0,9 C 0,0 km/h
23.01.2021 21:27 0,9 C 93 % 997,0 hPa 0,0 l/m 0,0 km/h W-NW 287 0 min 0,0 UV-I 0 W/m -0,1 C 0,9 C 0,0 km/h
23.01.2021 21:24 0,9 C 93 % 996,9 hPa 0,0 l/m 0,0 km/h W-NW 287 0 min 0,0 UV-I 0 W/m -0,1 C 0,9 C 0,0 km/h
23.01.2021 21:21 0,9 C 93 % 997,0 hPa 0,0 l/m 0,0 km/h W-NW 287 0 min 0,0 UV-I 0 W/m -0,1 C 0,9 C 0,0 km/h
23.01.2021 21:18 0,9 C 93 % 997,1 hPa 0,0 l/m 0,0 km/h W-NW 287 0 min 0,0 UV-I 0 W/m -0,1 C 0,9 C 0,0 km/h
23.01.2021 21:15 0,9 C 93 % 997,1 hPa 0,0 l/m 0,4 km/h W-NW 287 0 min 0,0 UV-I 0 W/m -0,1 C 0,9 C 3,2 km/h
23.01.2021 21:12 0,9 C 92 % 997,0 hPa 0,0 l/m 0,0 km/h W-NW 287 0 min 0,0 UV-I 0 W/m -0,2 C 0,9 C 1,6 km/h
23.01.2021 21:09 0,9 C 92 % 997,2 hPa 0,0 l/m 0,0 km/h W-NW 287 0 min 0,0 UV-I 0 W/m -0,2 C 0,9 C 0,0 km/h
23.01.2021 21:06 0,9 C 92 % 997,2 hPa 0,0 l/m 0,0 km/h W-NW 287 0 min 0,0 UV-I 0 W/m -0,2 C 0,9 C 0,0 km/h
23.01.2021 21:03 0,9 C 92 % 997,2 hPa 0,0 l/m 0,0 km/h W-NW 287 0 min 0,0 UV-I 0 W/m -0,2 C 0,9 C 0,0 km/h
23.01.2021 21:00 0,9 C 92 % 997,2 hPa 0,0 l/m 0,0 km/h W-NW 287 0 min 0,0 UV-I 0 W/m -0,2 C 0,9 C 0,0 km/h
23.01.2021 20:57 0,9 C 92 % 997,2 hPa 0,0 l/m 0,0 km/h W-NW 287 0 min 0,0 UV-I 0 W/m -0,2 C 0,9 C 1,6 km/h
23.01.2021 20:54 0,9 C 92 % 997,3 hPa 0,0 l/m 0,5 km/h W-NW 287 0 min 0,0 UV-I 0 W/m -0,2 C 0,9 C 1,6 km/h
23.01.2021 20:51 0,9 C 92 % 997,3 hPa 0,0 l/m 0,0 km/h W-NW 287 0 min 0,0 UV-I 0 W/m -0,2 C 0,9 C 0,0 km/h
23.01.2021 20:48 1,0 C 92 % 997,3 hPa 0,0 l/m 0,0 km/h W-NW 287 0 min 0,0 UV-I 0 W/m -0,2 C 1,0 C 0,0 km/h
23.01.2021 20:45 1,0 C 92 % 997,3 hPa 0,0 l/m 0,2 km/h W-NW 287 0 min 0,0 UV-I 0 W/m -0,2 C 1,0 C 3,2 km/h
23.01.2021 20:42 1,0 C 92 % 997,2 hPa 0,0 l/m 2,8 km/h W-NW 287 0 min 0,0 UV-I 0 W/m -0,2 C 1,0 C 8,0 km/h
23.01.2021 20:39 1,0 C 91 % 997,1 hPa 0,0 l/m 0,0 km/h W-NW 287 0 min 0,0 UV-I 0 W/m -0,3 C 1,0 C 0,0 km/h
23.01.2021 20:36 1,0 C 91 % 997,1 hPa 0,0 l/m 0,4 km/h W-NW 287 0 min 0,0 UV-I 0 W/m -0,3 C 1,0 C 3,2 km/h
23.01.2021 20:33 1,0 C 91 % 997,1 hPa 0,0 l/m 0,0 km/h W-NW 287 0 min 0,0 UV-I 0 W/m -0,3 C 1,0 C 0,0 km/h
23.01.2021 20:30 1,0 C 91 % 997,1 hPa 0,0 l/m 0,0 km/h W-NW 287 0 min 0,0 UV-I 0 W/m -0,3 C 1,0 C 0,0 km/h
23.01.2021 20:27 1,0 C 91 % 997,2 hPa 0,0 l/m 0,0 km/h W-NW 287 0 min 0,0 UV-I 0 W/m -0,3 C 1,0 C 0,0 km/h
23.01.2021 20:24 1,0 C 91 % 997,2 hPa 0,0 l/m 0,0 km/h W-NW 287 0 min 0,0 UV-I 0 W/m -0,3 C 1,0 C 0,0 km/h
23.01.2021 20:21 1,1 C 91 % 997,1 hPa 0,0 l/m 0,0 km/h W-NW 287 0 min 0,0 UV-I 0 W/m -0,2 C 1,1 C 0,0 km/h
_ Min-Zeit 00:45 14:09 06:06 - 07:00 - - - - - 16:15 10:36 07:06
Minimum _ 0,3 C 69 % 992,7 hPa - 0,0 km/h - - - - - -0,7 C -4,7 C 0,0 km/h
_ Max-Zeit 03:06 23:12 10:45 01:00 10:36 - - 01:00 12:42 12:45 03:06 05:03 10:27
Maximum _ 8,4 C 94 % 998,4 hPa 0,0 l/m 21,5 km/h
NW
- - 0 min 0,9 UV-I 127 W/m 6,5 C 8,2 C 45,1 km/h
W-NW
Durchschnitt _ 4,6 C 83 % 996,0 hPa #0,0 l/m 7,1 km/h NW - #0 min. 0,0 UV-I 0 W/m 2,0 C 2,6 C 14,2 km/h
Schulla EDV